[[{"header":{"parameterUnit":"m.s-1","parameterCategory":1,"la1":30.2991,"la2":30.254,"lo1":-89.0895,"lo2":-89.0444,"dy":0.0017,"dx":0.0017,"nx":28,"ny":28,"refTime":"2023-10-18T21:00:00:Z","depth":0,"parameterNumber":2,"parameterNumberName":"U-component_of_WINDS"},"data":[0,0,0,0,0,0,0,0,0,0,0,0,0,0,0,0,0,0,0,0,0,0,0,0,0,0,0,0,0,0,0,0,0,0,0,0,0,0,0,0,0,0,0,0,0,0,0,0,0,0,0,0,0,0,0,0,0,0,2.3196,2.3197,0,2.3225,2.3225,2.3225,2.3136,2.3134,2.3131,2.3128,2.3156,2.3159,2.3162,0,0,0,0,0,0,0,0,0,0,0,0,0,2.3063,2.3066,2.3196,2.3197,2.3197,2.3225,2.3225,2.3225,2.3137,2.3133,2.313,2.3127,2.3155,2.3159,2.3162,0,0,0,0,0,0,0,0,0,0,0,0,0,2.3109,2.3067,2.3196,2.3156,2.3153,2.3225,2.3225,2.3226,2.3137,2.3133,2.3129,2.3125,2.3153,2.3158,2.3163,2.3274,0,0,2.3178,2.318,0,0,0,0,0,0,0,0,2.3107,2.3114,2.3162,2.3159,2.3155,2.3173,2.3188,2.3242,2.3138,2.3143,2.3128,2.3123,2.3165,2.3168,2.3183,2.3276,2.3277,2.3178,2.3181,2.3183,2.3185,0,0,0,0,0,0,0,2.3104,2.3112,2.3207,2.3162,2.3159,2.3136,2.3138,2.3198,2.3176,2.3142,2.3136,2.3141,2.3162,2.3178,2.3183,2.3277,2.3178,2.3183,2.3186,2.3187,2.3463,2.3467,0,0,0,0,0,0,2.3106,2.311,2.3206,2.3208,2.3121,2.3142,2.3144,2.3171,2.3175,2.3172,2.3144,2.3137,2.3172,2.3177,2.3183,2.3313,2.3183,2.3188,2.3191,2.3458,2.3464,2.3468,0,0,0,0,0,0,2.3103,2.3115,2.3205,2.3158,2.3167,2.3148,2.318,2.3174,2.319,2.3177,2.3172,2.3165,2.3169,2.3176,2.3252,2.3313,2.319,2.3195,2.3453,2.346,2.3466,2.3575,0,0,0,0,0,0,2.31,2.3115,2.3158,2.3159,2.317,2.3275,2.3183,2.3178,2.3199,2.3189,2.3195,2.3192,2.3166,2.3246,2.3257,2.3318,2.3198,2.3448,2.3456,2.3464,2.3566,2.3585,2.3601,0,0,0,0,0,2.3096,2.3187,2.316,2.3172,2.3223,2.3279,2.3285,2.3254,2.3204,2.3246,2.3238,2.3191,2.3305,2.3254,2.3267,2.3329,2.3444,2.3454,2.3463,2.3558,2.3581,2.36,0,0,0,0,0,0,2.3192,2.3186,2.3157,2.3251,2.3266,2.3264,2.3316,2.3279,2.3308,2.3298,2.3258,2.326,2.3343,2.3344,2.3287,2.3437,2.3365,2.3378,2.3434,2.3455,2.3472,2.347,2.3202,0,0,0,0,0,2.3225,2.3271,2.3263,2.3347,2.3356,2.3335,2.3358,2.3333,2.3347,2.3352,2.3349,2.3364,2.3402,2.3429,2.3464,2.3566,2.3566,2.3615,2.3633,2.3647,2.3658,2.3712,2.3734,2.3501,2.3501,2.35,0,0,2.3292,2.3294,2.3326,2.3367,2.3375,2.3423,2.3341,2.3395,2.343,2.336,2.3432,2.3431,2.3444,2.3534,2.3573,2.3537,2.3723,2.3659,2.3671,2.3674,2.3724,2.3746,2.3766,2.3507,2.3506,2.3505,0,0,2.3439,2.3446,2.3517,2.3527,2.3541,2.3527,2.3544,2.3547,2.3544,2.3615,2.3563,2.3604,2.3672,2.3684,2.3698,2.385,2.3809,2.3863,2.3953,2.4006,2.4024,2.404,2.4094,2.4114,2.3874,2.3875,2.3875,0,2.352,2.3591,2.3557,2.3616,2.3635,2.3575,2.3646,2.3657,2.3682,2.3697,2.3656,2.374,2.3744,2.3836,2.3873,2.3887,2.3905,2.3862,2.4024,2.404,2.4054,2.4105,2.4126,2.3881,2.388,2.388,2.3879,0,2.369,2.3741,2.3796,2.3822,2.3848,2.3912,2.3888,2.3918,2.3891,2.388,2.3954,2.3957,2.3992,2.4012,2.3986,2.41,2.4077,2.4031,2.3958,2.4084,2.4131,2.415,2.389,2.3888,2.3886,2.3884,0,0,2.3898,2.3906,2.3926,2.3937,2.3949,2.3987,2.4048,2.4083,2.4109,2.4128,2.4178,2.4237,2.4195,2.4212,2.4187,2.4233,2.4353,2.4181,2.4181,2.4213,2.4478,2.4512,2.4535,2.4326,2.4329,2.4332,2.4477,0,2.4042,2.4148,2.412,2.4225,2.4271,2.4215,2.4268,2.4281,2.4273,2.431,2.43,2.4343,2.4284,2.4294,2.4337,2.4329,2.4406,2.4318,2.4371,2.4373,2.4369,2.456,2.4596,2.4732,2.4495,2.4498,2.45,0,2.4224,2.4252,2.4362,2.4366,2.4384,2.4433,2.4462,2.4499,2.4512,2.4502,2.4522,2.4487,2.4547,2.4475,2.4556,2.4498,2.4518,2.4517,2.4522,2.4525,2.4444,2.4568,2.4775,2.4796,2.4529,2.4527,2.4525,0,2.4364,2.4428,2.4502,2.4514,2.4521,2.4556,2.4561,2.457,2.4593,2.4618,2.4632,2.4664,2.4682,2.4707,2.4682,2.4631,2.4767,2.4693,2.4761,2.4762,2.4791,2.479,2.5005,2.4806,2.4805,2.4805,2.4805,0,2.4527,2.4597,2.4565,2.4611,2.4687,2.4654,2.473,2.4728,2.4737,2.478,2.4734,2.4775,2.474,2.4779,2.4759,2.483,2.4838,2.4832,2.4826,2.4836,2.4837,2.4848,2.4837,2.481,2.4809,2.4808,2.4807,0,2.4696,2.4678,2.4755,2.4756,2.4757,2.4814,2.4814,2.4855,2.4844,2.49,2.4912,2.4894,2.4937,2.4915,2.4959,2.4946,2.5037,2.5019,2.5033,2.5028,2.5097,2.5091,2.5326,2.5355,2.5139,2.5141,2.5142,0,2.4801,2.4853,2.486,2.4886,2.4894,2.4937,2.496,2.493,2.4955,2.4975,2.5014,2.5054,2.5083,2.5155,2.5146,2.5179,2.5161,2.5241,2.5165,2.5174,2.5161,2.5158,2.5163,2.5256,2.5258,2.526,2.5262,0,2.4989,2.4978,2.5013,2.5046,2.5075,2.5099,2.5119,2.5143,2.5113,2.5144,2.5188,2.5212,2.5257,2.5297,2.5326,2.533,2.5291,2.5286,2.5304,2.5314,2.532,2.5317,2.5074,2.5281,2.5279,2.5277,2.5276,2.5276,2.5128,2.5172,2.5184,2.5225,2.5237,2.5257,2.5297,2.5291,2.5328,2.5363,2.5343,2.5394,2.5406,2.5441,2.545,2.549,2.5457,2.5483,2.5489,2.5496,2.5505,2.5315,2.5495,2.5494,2.5494,2.5493,2.5493,0,2.5314,2.5319,2.5357,2.5387,2.542,2.5382,2.5402,2.5431,2.5477,2.5492,2.5522,2.5573,2.5611,2.5606,2.564,2.5673,2.5656,2.5683,2.568,2.5681,2.5532,2.5513,2.5696,2.5696,2.5696,2.5696,2.5696,2.5696,2.5414,2.5486,2.5476,2.5554,2.5558,2.5609,2.5624,2.5642,2.5653,2.5712,2.5744,2.5741,2.5747,2.5782,2.5815,2.5812,2.5827,2.586,2.5851,2.5712,2.5692,2.5672,2.5655,2.5864,2.5864,2.5997,2.5998,2.5999]},{"header":{"parameterUnit":"m.s-1","parameterCategory":1,"la1":30.2991,"la2":30.254,"lo1":-89.0895,"lo2":-89.0444,"dy":0.0017,"dx":0.0017,"nx":28,"ny":28,"refTime":"2023-10-18T21:00:00:Z","depth":0,"parameterNumber":3,"parameterNumberName":"V-component_of_WINDS"},"data":[0,0,0,0,0,0,0,0,0,0,0,0,0,0,0,0,0,0,0,0,0,0,0,0,0,0,0,0,0,0,0,0,0,0,0,0,0,0,0,0,0,0,0,0,0,0,0,0,0,0,0,0,0,0,0,0,0,0,3.1403,3.1405,0,3.1558,3.1559,3.1561,3.1555,3.1553,3.1551,3.1548,3.1707,3.1713,3.1719,0,0,0,0,0,0,0,0,0,0,0,0,0,3.1104,3.1109,3.1403,3.1405,3.1407,3.1557,3.1559,3.1562,3.1555,3.1553,3.155,3.1547,3.1704,3.1712,3.1719,0,0,0,0,0,0,0,0,0,0,0,0,0,3.1244,3.1111,3.1403,3.1422,3.1425,3.1557,3.1559,3.1562,3.1556,3.1553,3.1549,3.1546,3.1702,3.1711,3.172,3.1843,0,0,3.1749,3.1753,0,0,0,0,0,0,0,0,3.1236,3.1255,3.1417,3.1421,3.1425,3.1534,3.1512,3.1656,3.1557,3.1506,3.1548,3.1545,3.1652,3.1665,3.1701,3.185,3.1857,3.175,3.1755,3.1759,3.1762,0,0,0,0,0,0,0,3.1226,3.1248,3.1464,3.142,3.1424,3.1423,3.1439,3.1539,3.1595,3.151,3.151,3.1529,3.1653,3.1692,3.1705,3.1859,3.1749,3.1758,3.1764,3.1767,3.2118,3.2121,0,0,0,0,0,0,3.1212,3.124,3.1459,3.1469,3.132,3.1431,3.1449,3.1502,3.1594,3.1605,3.1531,3.1528,3.1678,3.1694,3.171,3.186,3.1759,3.1768,3.1773,3.2114,3.2119,3.2123,0,0,0,0,0,0,3.1206,3.1232,3.1453,3.1355,3.1383,3.144,3.1499,3.1507,3.1546,3.161,3.162,3.1561,3.1676,3.1697,3.181,3.1866,3.1772,3.1781,3.211,3.2115,3.2121,3.2161,0,0,0,0,0,0,3.1197,3.123,3.1277,3.1356,3.1388,3.1551,3.1502,3.1512,3.1562,3.1559,3.164,3.1651,3.1675,3.1796,3.1819,3.1877,3.1788,3.2105,3.2112,3.2119,3.2155,3.2167,3.2178,0,0,0,0,0,3.1186,3.1282,3.1279,3.1306,3.1448,3.1554,3.1572,3.1598,3.1566,3.1614,3.1656,3.1648,3.1856,3.1808,3.1834,3.1895,3.2102,3.211,3.2118,3.215,3.2165,3.2178,0,0,0,0,0,0,3.1208,3.1292,3.129,3.1414,3.1477,3.1552,3.1614,3.1613,3.1686,3.168,3.1709,3.1728,3.1841,3.1879,3.1824,3.2019,3.1975,3.1989,3.199,3.2005,3.2016,3.2004,3.1796,0,0,0,0,0,3.1227,3.1306,3.1375,3.1478,3.1509,3.1556,3.1603,3.1618,3.1684,3.1711,3.176,3.1825,3.1905,3.1957,3.2034,3.216,3.2178,3.2215,3.2227,3.2236,3.2247,3.2318,3.2335,3.215,3.215,3.215,0,0,3.1267,3.1323,3.1371,3.1484,3.1534,3.1615,3.1579,3.1666,3.1727,3.1724,3.1834,3.1872,3.1946,3.2067,3.2123,3.2102,3.2303,3.2246,3.2253,3.226,3.2328,3.2346,3.2361,3.2156,3.2155,3.2154,0,0,3.1382,3.1432,3.1523,3.1575,3.1651,3.1682,3.1704,3.178,3.1805,3.1916,3.1916,3.1988,3.2125,3.2178,3.2223,3.2358,3.2354,3.2383,3.2442,3.2511,3.2525,3.2538,3.2587,3.2604,3.2394,3.2394,3.2394,0,3.1423,3.1545,3.157,3.1658,3.1708,3.1709,3.1802,3.185,3.1948,3.1982,3.1958,3.213,3.218,3.2313,3.2346,3.2383,3.2409,3.2374,3.2521,3.2534,3.2547,3.2594,3.2612,3.2397,3.2397,3.2396,3.2396,0,3.1591,3.1676,3.174,3.1835,3.1891,3.1981,3.202,3.2075,3.2085,3.2118,3.2231,3.2291,3.238,3.2413,3.2423,3.2548,3.2533,3.2515,3.2471,3.2567,3.2612,3.263,3.2401,3.24,3.2399,3.2399,0,0,3.1724,3.1831,3.1855,3.1898,3.1982,3.2049,3.2139,3.2226,3.2272,3.234,3.2416,3.2532,3.2516,3.2567,3.2583,3.2643,3.2747,3.2618,3.262,3.264,3.2889,3.2903,3.2923,3.2745,3.2748,3.2751,3.2883,0,3.1848,3.2008,3.2033,3.2173,3.2252,3.2255,3.2333,3.2394,3.2427,3.2499,3.2536,3.2618,3.259,3.2621,3.268,3.2722,3.2798,3.2713,3.2817,3.282,3.2798,3.2946,3.2961,3.3082,3.29,3.2903,3.2906,0,3.2014,3.2086,3.2234,3.2309,3.2343,3.2413,3.2495,3.2564,3.2633,3.2653,3.271,3.2719,3.2813,3.2765,3.2895,3.2836,3.288,3.2907,3.2913,3.2924,3.2869,3.2962,3.3122,3.314,3.2933,3.2931,3.2929,0,3.2097,3.223,3.2337,3.2373,3.2463,3.2512,3.2551,3.2617,3.2668,3.274,3.2774,3.2856,3.2901,3.2964,3.2995,3.2957,3.3124,3.3078,3.3143,3.3143,3.3178,3.3176,3.3348,3.3206,3.3206,3.3205,3.3205,0,3.2233,3.2323,3.2375,3.244,3.2542,3.2571,3.2671,3.2709,3.2767,3.2841,3.2847,3.2916,3.2953,3.3027,3.3052,3.3156,3.3176,3.3195,3.3201,3.3195,3.3193,3.3225,3.3217,3.321,3.3209,3.3208,3.3207,0,3.2342,3.238,3.2496,3.2571,3.2592,3.2664,3.2728,3.2792,3.2825,3.2918,3.2941,3.2993,3.3081,3.3118,3.3225,3.3242,3.3362,3.3361,3.3338,3.334,3.3404,3.3398,3.3603,3.3632,3.347,3.3472,3.3473,0,3.2427,3.2497,3.2579,3.2629,3.267,3.2749,3.2801,3.2832,3.2886,3.297,3.3024,3.3111,3.3183,3.3323,3.3371,3.3453,3.3455,3.3521,3.3467,3.3459,3.3456,3.3452,3.3459,3.3531,3.3532,3.3534,3.3535,0,3.2573,3.2588,3.2663,3.2745,3.2807,3.2873,3.2937,3.2977,3.3018,3.3079,3.3168,3.3224,3.3334,3.3421,3.3507,3.3547,3.3549,3.3551,3.3571,3.3566,3.355,3.356,3.3366,3.3547,3.3545,3.3545,3.3544,3.3544,3.2673,3.2735,3.2803,3.2887,3.2938,3.2998,3.3062,3.3103,3.3178,3.327,3.3284,3.338,3.3447,3.3562,3.3607,3.3682,3.3666,3.3694,3.3701,3.3708,3.3712,3.3538,3.3698,3.3697,3.3697,3.3697,3.3697,0,3.282,3.2864,3.294,3.303,3.3096,3.309,3.3162,3.3217,3.3301,3.3364,3.3435,3.3538,3.3622,3.3677,3.3762,3.3812,3.3815,3.3834,3.3831,3.384,3.3722,3.3697,3.383,3.383,3.383,3.383,3.383,3.383,3.2904,3.301,3.3033,3.3164,3.3208,3.3302,3.3343,3.3398,3.3449,3.3564,3.3634,3.3669,3.3729,3.3819,3.3896,3.391,3.3941,3.3961,3.3974,3.3863,3.3849,3.3835,3.3812,3.3968,3.3968,3.4087,3.4088,3.4089]}]]